Weather in Vodzimonye

Russia / Udmurt Republic     56°48′56″N   51°37′17″E
temp.,
°C
wind,
m/s
gust,
m/s
humid.,
%
clouds,
%
prec.,
mm/h
press.,
hPa
HPBL,
m
12 april, mon
mon1201:000nne2399100 0.0 1035101
04:000nne2398100 0.0 103764
07:00+1ne2599100 0.0 1038119
10:00+5ne3494100 0.0 1039214
13:00+9ne348375 0.0 1039502
16:00+10ene2476100 0.0 1039704
19:00+6ne2292100 0.0 103918
22:00+4ese339099 0.0 104052
13 april, tue
tue1301:00+3ese3589100 0.0 103974
04:00+3ese3491100 0.0 103957
07:00+3ese3790100 0.0 1038165
10:00+9se3669100 0.0 1037357
13:00+14sse3559100 0.0 1036661
16:00+15s3463100 0.0 1034670
19:00+11s3482100 0.0 103358
22:00+9s358874 0.0 103367
14 april, wed
wed1401:00+8ssw338939 0.0 103237
04:00+7ssw348934 0.0 103244
07:00+7ssw358452 0.0 103199
10:00+13ssw35535 0.0 1031402
13:00+16ssw45385 0.0 1029953
16:00+17ssw453455 0.0 10281101
19:00+13s325313 0.0 102623
22:00+10ssw22696 0.0 102614
15 april, thu
thu1501:00+8ssw227841 0.0 102515
04:00+7ssw228560 0.0 102519
07:00+8ssw23835 0.0 102455
10:00+14ssw34605 0.0 1022481
13:00+17sw454932 0.0 10201268
16:00+18sw44476 0.0 10191567
19:00+15ssw336223 0.0 101741
22:00+11ssw357622 0.0 101780
16 april, fri
fri1601:00+10sw348120 0.0 101668
04:00+9wsw2383100 0.0 101555
07:00+9wnw23851 0.0 1014103
10:00+13nnw33625 0.0 1013583
13:00+13nnw556194 0.0 1013975
16:00+7n7881100 0.0 1015735
19:00+3nne71186100 0.1 1017862
22:00+3n51076100 0.1 1017936